• Em Portugal
  • Lista de países
  • Para 7 dias
  • Temperatura da água
  • Mapas de satélite
  • Mapa do tempo
  • Widgets de tempo
  • user-avatar
    Iniciar Sessão

    Previsão horária em Ischgl

    Hoje, 24 Outubro, Quarta-feira

    Tempo Temperatura Precipitação Vento Pressão Humidade
    00:00 -1°C° 0 mm 3 m/s 577 mmHg 59%
    01:00 -2°C° 0 mm 3 m/s 576 mmHg 61%
    02:00 -2°C° 0 mm 3 m/s 576 mmHg 63%
    03:00 -2°C° 0 mm 3 m/s 576 mmHg 65%
    04:00 -2°C° 0 mm 3 m/s 576 mmHg 67%
    05:00 -2°C° 0.1 mm 3 m/s 576 mmHg 72%
    06:00 -2°C° 0.1 mm 3 m/s 575 mmHg 76%
    07:00 -2°C° 0.1 mm 3 m/s 575 mmHg 81%
    08:00 -1°C° 0.5 mm 3 m/s 576 mmHg 82%
    09:00 0°C° 0.5 mm 3 m/s 576 mmHg 83%
    10:00 0°C° 0.5 mm 3 m/s 576 mmHg 85%
    11:00 +1°C° 0.6 mm 3 m/s 576 mmHg 85%
    12:00 +1°C° 0.6 mm 3 m/s 577 mmHg 85%
    13:00 +2°C° 0.6 mm 3 m/s 577 mmHg 85%
    14:00 +1°C° 0.4 mm 3 m/s 576 mmHg 87%
    15:00 +1°C° 0.4 mm 3 m/s 576 mmHg 89%
    16:00 +1°C° 0.4 mm 3 m/s 576 mmHg 90%
    17:00 +1°C° 0.2 mm 3 m/s 576 mmHg 92%
    18:00 0°C° 0.2 mm 3 m/s 576 mmHg 94%
    19:00 0°C° 0.2 mm 3 m/s 576 mmHg 96%
    20:00 0°C° 0.1 mm 3 m/s 577 mmHg 96%
    21:00 0°C° 0.1 mm 3 m/s 577 mmHg 96%
    22:00 +1°C° 0.1 mm 2 m/s 577 mmHg 96%
    23:00 +1°C° 0 mm 2 m/s 577 mmHg 96%

    Amanhã, 25 Outubro, Quinta-feira

    Tempo Temperatura Precipitação Vento Pressão Humidade
    00:00 -1°C° 0 mm 2 m/s 576 mmHg 96%
    01:00 -1°C° 0 mm 2 m/s 576 mmHg 96%
    02:00 -1°C° 0 mm 2 m/s 576 mmHg 96%
    03:00 0°C° 0 mm 1 m/s 576 mmHg 96%
    04:00 0°C° 0 mm 1 m/s 575 mmHg 96%
    05:00 -3°C° 0 mm 2 m/s 575 mmHg 93%
    06:00 -3°C° 0 mm 2 m/s 575 mmHg 91%
    07:00 -3°C° 0 mm 2 m/s 574 mmHg 89%
    08:00 -1°C° 0 mm 2 m/s 576 mmHg 78%
    09:00 +4°C° 0 mm 1 m/s 577 mmHg 67%
    10:00 +7°C° 0 mm 1 m/s 578 mmHg 56%
    11:00 +8°C° 0 mm 1 m/s 578 mmHg 51%
    12:00 +8°C° 0 mm 2 m/s 578 mmHg 46%
    13:00 +9°C° 0 mm 2 m/s 578 mmHg 41%
    14:00 +8°C° 0 mm 2 m/s 578 mmHg 46%
    15:00 +7°C° 0 mm 2 m/s 577 mmHg 52%
    16:00 +7°C° 0 mm 1 m/s 576 mmHg 58%
    17:00 +5°C° 0 mm 1 m/s 575 mmHg 65%
    18:00 +3°C° 0 mm 1 m/s 574 mmHg 72%
    19:00 +1°C° 0 mm 1 m/s 573 mmHg 80%
    20:00 0°C° 0 mm 1 m/s 573 mmHg 77%
    21:00 0°C° 0 mm 1 m/s 573 mmHg 74%
    22:00 0°C° 0 mm 1 m/s 573 mmHg 71%
    23:00 0°C° 0 mm 1 m/s 573 mmHg 68%

    Depois de amanhã, 26 Outubro, Sexta-feira

    Tempo Temperatura Precipitação Vento Pressão Humidade
    00:00 0°C° 0 mm 1 m/s 572 mmHg 64%
    01:00 0°C° 0 mm 1 m/s 572 mmHg 61%
    02:00 0°C° 0 mm 1 m/s 572 mmHg 58%
    03:00 0°C° 0 mm 1 m/s 571 mmHg 55%
    04:00 0°C° 0 mm 1 m/s 571 mmHg 53%
    05:00 0°C° 0 mm 1 m/s 571 mmHg 51%
    06:00 -1°C° 0 mm 1 m/s 571 mmHg 50%
    07:00 -1°C° 0 mm 1 m/s 570 mmHg 48%
    08:00 +2°C° 0 mm 1 m/s 571 mmHg 44%
    09:00 +4°C° 0 mm 1 m/s 573 mmHg 41%
    10:00 +7°C° 0 mm 1 m/s 574 mmHg 37%
    11:00 +7°C° 0 mm 1 m/s 574 mmHg 36%
    12:00 +8°C° 0 mm 1 m/s 574 mmHg 36%
    13:00 +8°C° 0 mm 2 m/s 574 mmHg 35%
    14:00 +8°C° 0 mm 1 m/s 573 mmHg 41%
    15:00 +7°C° 0 mm 1 m/s 573 mmHg 48%
    16:00 +6°C° 0 mm 1 m/s 572 mmHg 54%
    17:00 +4°C° 0 mm 1 m/s 571 mmHg 62%
    18:00 +2°C° 0 mm 1 m/s 570 mmHg 71%
    19:00 -1°C° 0 mm 1 m/s 569 mmHg 79%
    20:00 -1°C° 0 mm 1 m/s 569 mmHg 79%
    21:00 -1°C° 0 mm 1 m/s 569 mmHg 80%
    22:00 -1°C° 0 mm 1 m/s 569 mmHg 80%
    23:00 -1°C° 0 mm 1 m/s 569 mmHg 82%

    27 Outubro, Sábado

    Tempo Temperatura Precipitação Vento Pressão Humidade
    00:00 -1°C° 0 mm 1 m/s 569 mmHg 83%
    01:00 -1°C° 0 mm 1 m/s 569 mmHg 85%
    02:00 -1°C° 0.1 mm 1 m/s 569 mmHg 86%
    03:00 -1°C° 0.1 mm 1 m/s 568 mmHg 88%
    04:00 -2°C° 0.1 mm 0 m/s 568 mmHg 89%
    05:00 -1°C° 0.4 mm 1 m/s 568 mmHg 90%
    06:00 -1°C° 0.4 mm 1 m/s 568 mmHg 90%
    07:00 -1°C° 0.4 mm 1 m/s 568 mmHg 91%
    08:00 -1°C° 1.3 mm 1 m/s 568 mmHg 91%
    09:00 -1°C° 1.3 mm 1 m/s 567 mmHg 91%
    10:00 -3°C° 1.3 mm 2 m/s 567 mmHg 92%
    11:00 -3°C° 1.7 mm 2 m/s 567 mmHg 92%
    12:00 -3°C° 1.7 mm 2 m/s 567 mmHg 93%
    13:00 -3°C° 1.7 mm 2 m/s 566 mmHg 94%
    14:00 -3°C° 1.6 mm 2 m/s 566 mmHg 94%
    15:00 -3°C° 1.6 mm 2 m/s 565 mmHg 95%
    16:00 -4°C° 1.6 mm 2 m/s 565 mmHg 96%
    17:00 -4°C° 1.6 mm 2 m/s 565 mmHg 96%
    18:00 -5°C° 1.6 mm 2 m/s 565 mmHg 96%
    19:00 -5°C° 1.6 mm 2 m/s 565 mmHg 96%
    20:00 -6°C° 1.4 mm 2 m/s 564 mmHg 96%
    21:00 -6°C° 1.4 mm 2 m/s 564 mmHg 96%
    22:00 -4°C° 1.4 mm 1 m/s 564 mmHg 96%
    23:00 -4°C° 1.1 mm 1 m/s 564 mmHg 96%

    28 Outubro, Domingo

    Tempo Temperatura Precipitação Vento Pressão Humidade
    00:00 -4°C° 1.1 mm 1 m/s 564 mmHg 95%
    01:00 -6°C° 1.1 mm 2 m/s 563 mmHg 95%
    02:00 -6°C° 1.7 mm 2 m/s 563 mmHg 96%
    03:00 -6°C° 1.7 mm 2 m/s 563 mmHg 96%
    04:00 -6°C° 1.7 mm 2 m/s 562 mmHg 96%
    05:00 -6°C° 2.6 mm 2 m/s 562 mmHg 96%
    06:00 -6°C° 2.6 mm 2 m/s 562 mmHg 96%
    07:00 -6°C° 2.6 mm 2 m/s 562 mmHg 97%
    08:00 -6°C° 3.5 mm 2 m/s 562 mmHg 97%
    09:00 -4°C° 3.5 mm 1 m/s 562 mmHg 96%
    10:00 -4°C° 3.5 mm 1 m/s 562 mmHg 96%
    11:00 -4°C° 2.4 mm 1 m/s 562 mmHg 96%
    12:00 -3°C° 2.4 mm 1 m/s 562 mmHg 96%
    13:00 -3°C° 2.4 mm 1 m/s 563 mmHg 96%
    14:00 -3°C° 1.9 mm 1 m/s 563 mmHg 96%
    15:00 -3°C° 1.9 mm 1 m/s 563 mmHg 96%
    16:00 -2°C° 1.9 mm 1 m/s 563 mmHg 96%
    17:00 -3°C° 1.8 mm 1 m/s 563 mmHg 96%
    18:00 -3°C° 1.8 mm 1 m/s 563 mmHg 97%
    19:00 -3°C° 1.8 mm 1 m/s 563 mmHg 97%
    20:00 -3°C° 1.4 mm 1 m/s 563 mmHg 97%
    21:00 -3°C° 1.4 mm 1 m/s 563 mmHg 96%
    22:00 -4°C° 1.4 mm 2 m/s 563 mmHg 96%
    23:00 -2°C° 1.1 mm 1 m/s 563 mmHg 96%

    29 Outubro, Segunda-feira

    Tempo Temperatura Precipitação Vento Pressão Humidade
    00:00 -2°C° 1.1 mm 1 m/s 563 mmHg 96%
    01:00 -2°C° 1.1 mm 1 m/s 563 mmHg 97%
    02:00 -3°C° 1.3 mm 2 m/s 563 mmHg 97%
    03:00 -3°C° 1.3 mm 2 m/s 563 mmHg 97%
    04:00 -3°C° 1.3 mm 2 m/s 563 mmHg 98%
    05:00 -3°C° 0.3 mm 2 m/s 563 mmHg 97%
    06:00 -3°C° 0.3 mm 2 m/s 563 mmHg 96%
    07:00 -3°C° 0.3 mm 2 m/s 562 mmHg 95%
    08:00 -2°C° 0.2 mm 3 m/s 563 mmHg 96%
    09:00 -2°C° 0.2 mm 3 m/s 563 mmHg 98%
    10:00 -1°C° 0.2 mm 3 m/s 563 mmHg 99%
    11:00 -1°C° 0.2 mm 3 m/s 564 mmHg 99%
    12:00 -1°C° 0.2 mm 3 m/s 564 mmHg 98%
    13:00 -2°C° 0.2 mm 4 m/s 564 mmHg 98%
    14:00 -2°C° 0.2 mm 4 m/s 564 mmHg 98%
    15:00 -1°C° 0.2 mm 3 m/s 564 mmHg 98%
    16:00 -1°C° 0.2 mm 3 m/s 564 mmHg 98%
    17:00 -2°C° 0.4 mm 3 m/s 564 mmHg 97%
    18:00 -2°C° 0.4 mm 3 m/s 564 mmHg 95%
    19:00 -2°C° 0.4 mm 3 m/s 564 mmHg 94%
    20:00 -3°C° 0.3 mm 2 m/s 563 mmHg 94%
    21:00 -3°C° 0.3 mm 2 m/s 563 mmHg 94%
    22:00 -3°C° 0.3 mm 2 m/s 563 mmHg 94%
    23:00 -3°C° 0.8 mm 2 m/s 562 mmHg 95%

    30 Outubro, Terça-feira

    Tempo Temperatura Precipitação Vento Pressão Humidade
    00:00 -3°C° 0.8 mm 2 m/s 562 mmHg 95%
    01:00 -3°C° 0.8 mm 2 m/s 561 mmHg 95%
    02:00 -3°C° 1.4 mm 2 m/s 561 mmHg 95%
    03:00 -4°C° 1.4 mm 3 m/s 561 mmHg 96%
    04:00 -4°C° 1.4 mm 3 m/s 560 mmHg 96%
    05:00 -4°C° 0.9 mm 3 m/s 560 mmHg 96%
    06:00 -5°C° 0.9 mm 3 m/s 561 mmHg 95%
    07:00 -5°C° 0.9 mm 3 m/s 561 mmHg 95%
    08:00 -5°C° 0.6 mm 3 m/s 561 mmHg 95%
    09:00 -5°C° 0.6 mm 3 m/s 561 mmHg 94%
    10:00 -5°C° 0.6 mm 3 m/s 562 mmHg 94%
    11:00 -4°C° 0.2 mm 3 m/s 562 mmHg 93%
    12:00 -4°C° 0.2 mm 3 m/s 563 mmHg 93%
    13:00 -4°C° 0.2 mm 3 m/s 563 mmHg 92%
    14:00 -4°C° 0.1 mm 3 m/s 563 mmHg 92%
    15:00 -4°C° 0.1 mm 2 m/s 563 mmHg 92%
    16:00 -4°C° 0.1 mm 2 m/s 563 mmHg 91%
    17:00 -5°C° 0.1 mm 2 m/s 563 mmHg 92%
    18:00 -7°C° 0.1 mm 2 m/s 563 mmHg 92%
    19:00 -8°C° 0.1 mm 2 m/s 562 mmHg 92%
    20:00 -8°C° 0 mm 2 m/s 563 mmHg 92%
    21:00 -9°C° 0 mm 2 m/s 563 mmHg 91%
    22:00 -9°C° 0 mm 2 m/s 563 mmHg 91%
    23:00 -10°C° 0 mm 2 m/s 563 mmHg 90%
    Mostrar mais